Погода в Бабанке

Украина / Черкасская область     48°42′20″N   30°27′00″E
темп.,
°C
ветер,
м/с
пор.,
м/с
влажн.,
%
обл.,
%
осадки,
мм/ч
давл.,
гПа
погр.,
м
27 ноября, сб
сб2723:00+6ююв101887100 0.0 1004877
02:00+6ююв102087100 0.9 1000958
05:00+8ю91695100 4.4 997915
08:00+9ююз61290100 4.9 999560
11:00+10ююз61081100 0.0 999473
14:00+11ююз597338 0.0 999554
17:00+8ююз368069 0.0 1001131
20:00+7юз33825 0.0 100241
28 ноября, вс
вс2823:00+6юз22825 0.0 100416
02:00+6зюз22845 0.0 100510
05:00+5ююв33855 0.0 100521
08:00+5ююв368896 0.0 100591
11:00+9ююв487087 0.0 1005297
14:00+11ююв4966100 0.0 1003505
17:00+10ююв51293100 0.0 1002383
20:00+10ю71391100 0.1 1002668
29 ноября, пн
пн2923:00+10ююв61294100 0.1 1001526
02:00+10ююв51198100 0.1 999565
05:00+10юв61195100 0.1 996636
08:00+10ююв81490100 0.1 993764
11:00+11ю71391100 0.3 991931
14:00+12юз6107436 0.3 989663
17:00+10з81271100 0.1 989634
20:00+6з815726 3.1 994952
30 ноября, вт
вт3023:00+4з716695 0.0 996772
02:00+2з715684 0.0 998686
05:00+1з714745 0.0 999610
08:00+1з615725 0.0 1000691
11:00+3з81459100 0.0 1001925
14:00+4з8145899 0.0 10001197
17:00+2зсз814675 0.0 10021034
20:00+1зсз814715 0.0 1003835
1 декабря, ср
ср123:00+1зсз71365100 0.0 1004779
02:00−1з511716 0.0 1005476
05:00−1ююз51272100 0.0 1005405
08:000зюз71370100 0.0 1005738
11:00+3зюз81260100 0.0 10041034
14:00+5з7125056 0.0 10031461
17:00+2з612729 0.0 1006627
20:00+2з61170100 0.0 1007624